Starlink 4208

operational
NORAD ID: 52844 Int'l Des: 2022-062 Owner: SPXS Country: US Constellation: starlink
LEOCIRCULAR

Über Starlink 4208

Beschreibung wird geladen...

Live-Position

3D-Globus wird geladen...

Nächste Überflüge

Höhenverlauf

Altitude vs Time

uPlot chart will show altitude changes over time

Zweizeiliger Elementsatz

1 52844U 22062Q 25303.57364843 -.00000854 00000-0 -35556-4 0 9995
2 52844 53.2171 258.2353 0001521 93.7521 266.3645 15.08835789186144
Epoch: 30. Okt. 2025 • Age: 20 hours

Aktueller Status

Höhe 539.7 km
Geschwindigkeit 7.59 km/s
Subsatellitenpunkt 7.10°N, 114.73°W
Startdatum 17. Juni 2022
Alter 3.3 years
Typ internet

Technische Details

Klassifizierung Payload
Masse 297.00 kg
Trockenmasse 275.00 kg
Gesamtmasse 297.00 kg
Länge 0.20 m
Durchmesser 2.80 m
Spannweite 9.00 m
Form Box + pan
Hersteller SPXS
Bus-Typ Starlink
Phasenstatus In Orbit
Besitzer/Staat SPXS/US

Große Konstellationen

Loading constellations...